Location: ??????
(38.3184°N, 23.6932°E)
Time: 01:44:45
(UTC+00:00)

Okean O Rocket - Pass Details

Date: 16 October 2021
Orbit: 623 x 643 km, 98.2° (Epoch: 04 December)

Event Time Altitude Azimuth Distance (km) Brightness Sun altitude
Rises 16:16:27 0° 152° (SSE) 2,890 4.8 -6.8°
Reaches altitude 10° 16:18:41 10° 146° (SE) 1,988 3.9 -7.2°
Maximum altitude 16:22:49 47° 73° (ENE) 833 1.8 -8.0°
Drops below altitude 10° 16:26:59 10° 360° (N) 2,003 4.1 -8.8°
Sets 16:29:15 0° 354° (N) 2,915 5.0 -9.3°
